| time (UTC) | temp F | wind direction | speed MPH | gust MPH | rain 1hr in | rain 24hr in | rain mn in | humidity % | barometer mb |
| 20260503035522 | 58 | 218 | 0.0 | 3.0 | 0.00 | 0.00 | 0.00 | 71 | 1014.4 |
| 20260503035022 | 57 | 155 | 0.0 | 0.0 | 0.00 | 0.00 | 0.00 | 72 | 1014.4 |
| 20260503034522 | 57 | 155 | 0.0 | 0.0 | 0.00 | 0.00 | 0.00 | 73 | 1014.4 |
| 20260503034021 | 56 | 155 | 0.0 | 0.0 | 0.00 | 0.00 | 0.00 | 74 | 1014.4 |
| 20260503033522 | 56 | 155 | 0.0 | 1.0 | 0.00 | 0.00 | 0.00 | 75 | 1014.4 |
| 20260503033023 | 56 | 155 | 0.0 | 1.0 | 0.00 | 0.00 | 0.00 | 76 | 1014.3 |
| 20260503032522 | 56 | 292 | 0.0 | 0.0 | 0.00 | 0.00 | 0.00 | 77 | 1014.4 |
| 20260503032022 | 56 | 292 | 0.0 | 0.0 | 0.00 | 0.00 | 0.00 | 77 | 1014.4 |
| 20260503031525 | 56 | 292 | 0.0 | 1.0 | 0.00 | 0.00 | 0.00 | 76 | 1014.3 |
| 20260503031021 | 56 | 292 | 0.0 | 1.0 | 0.00 | 0.00 | 0.00 | 76 | 1014.2 |
| 20260503030520 | 56 | 292 | 0.0 | 0.0 | 0.00 | 0.00 | 0.00 | 75 | 1014.1 |
| 20260503030027 | 56 | 292 | 0.0 | 0.0 | 0.00 | 0.00 | 0.00 | 74 | 1014.1 |
| 20260503025521 | 57 | 292 | 0.0 | 0.0 | 0.00 | 0.00 | 0.00 | 74 | 1014.1 |
| 20260503025021 | 57 | 292 | 0.0 | 0.0 | 0.00 | 0.00 | 0.00 | 74 | 1014.0 |
| 20260503024520 | 57 | 292 | 0.0 | 0.0 | 0.00 | 0.00 | 0.00 | 74 | 1014.0 |
| 20260503024020 | 57 | 292 | 0.0 | 0.0 | 0.00 | 0.00 | 0.00 | 73 | 1013.9 |
| 20260503023520 | 57 | 292 | 0.0 | 0.0 | 0.00 | 0.00 | 0.00 | 73 | 1013.8 |
| 20260503023020 | 57 | 292 | 0.0 | 0.0 | 0.00 | 0.00 | 0.00 | 74 | 1013.7 |
| 20260503022519 | 58 | 292 | 0.0 | 0.0 | 0.00 | 0.00 | 0.00 | 73 | 1013.7 |
| 20260503022019 | 58 | 292 | 0.0 | 0.0 | 0.00 | 0.00 | 0.00 | 73 | 1013.7 |
| 20260503021519 | 58 | 292 | 0.0 | 0.0 | 0.00 | 0.00 | 0.00 | 71 | 1013.7 |
| 20260503021019 | 59 | 292 | 0.0 | 0.0 | 0.00 | 0.00 | 0.00 | 70 | 1013.6 |
| 20260503020522 | 59 | 292 | 0.0 | 0.0 | 0.00 | 0.00 | 0.00 | 71 | 1013.5 |
| 20260503020019 | 60 | 292 | 0.0 | 0.0 | 0.00 | 0.00 | 0.00 | 72 | 1013.6 |
| 20260503015519 | 60 | 292 | 0.0 | 0.0 | 0.00 | 0.00 | 0.00 | 70 | 1013.4 |
| 20260503015018 | 61 | 292 | 0.0 | 0.0 | 0.00 | 0.00 | 0.00 | 68 | 1013.5 |
| 20260503014518 | 62 | 292 | 0.0 | 0.0 | 0.00 | 0.00 | 0.00 | 68 | 1013.4 |
| 20260503014018 | 63 | 292 | 0.0 | 0.0 | 0.00 | 0.00 | 0.00 | 66 | 1013.4 |
| 20260503013518 | 63 | 292 | 0.0 | 0.0 | 0.00 | 0.00 | 0.00 | 64 | 1013.4 |
| 20260503013029 | 64 | 292 | 0.0 | 0.0 | 0.00 | 0.00 | 0.00 | 61 | 1013.4 |
| 20260503012521 | 66 | 292 | 0.0 | 0.0 | 0.00 | 0.00 | 0.00 | 56 | 1013.4 |
| 20260503012018 | 67 | 292 | 0.0 | 0.0 | 0.00 | 0.00 | 0.00 | 54 | 1013.2 |
| 20260503011517 | 68 | 292 | 0.0 | 0.0 | 0.00 | 0.00 | 0.00 | 53 | 1013.3 |
| 20260503011016 | 70 | 292 | 0.0 | 0.0 | 0.00 | 0.00 | 0.00 | 51 | 1013.2 |
| 20260503010517 | 72 | 292 | 0.0 | 1.0 | 0.00 | 0.00 | 0.00 | 47 | 1013.1 |
| 20260503010017 | 73 | 292 | 0.0 | 1.0 | 0.00 | 0.00 | 0.00 | 42 | 1013.1 |
| 20260503005517 | 75 | 292 | 0.0 | 0.0 | 0.00 | 0.00 | 0.00 | 39 | 1013.1 |
| 20260503005017 | 76 | 292 | 0.0 | 2.0 | 0.00 | 0.00 | 0.00 | 38 | 1013.1 |
| 20260503004516 | 76 | 292 | 0.0 | 2.0 | 0.00 | 0.00 | 0.00 | 36 | 1013.1 |
| 20260503004016 | 77 | 214 | 0.0 | 2.0 | 0.00 | 0.00 | 0.00 | 36 | 1013.1 |
| 20260503003515 | 78 | 313 | 0.0 | 2.0 | 0.00 | 0.00 | 0.00 | 32 | 1013.0 |
| 20260503003022 | 80 | 295 | 0.0 | 1.0 | 0.00 | 0.00 | 0.00 | 30 | 1012.9 |
| 20260503002515 | 82 | 86 | 0.0 | 0.0 | 0.00 | 0.00 | 0.00 | 31 | 1013.0 |
| 20260503002016 | 82 | 86 | 0.0 | 0.0 | 0.00 | 0.00 | 0.00 | 30 | 1013.0 |
| 20260503001513 | 81 | 86 | 0.0 | 0.0 | 0.00 | 0.00 | 0.00 | 35 | 1013.0 |
| 20260503001012 | 80 | 86 | 0.0 | 1.0 | 0.00 | 0.00 | 0.00 | 35 | 1012.9 |
| 20260503000516 | 80 | 86 | 0.0 | 1.0 | 0.00 | 0.00 | 0.00 | 33 | 1013.0 |
| 20260503000012 | 79 | 78 | 0.0 | 2.0 | 0.00 | 0.00 | 0.00 | 32 | 1013.0 |
| 20260502235512 | 79 | 242 | 0.0 | 1.0 | 0.00 | 0.00 | 0.00 | 33 | 1013.1 |
| 20260502235012 | 79 | 268 | 0.0 | 3.0 | 0.00 | 0.00 | 0.00 | 32 | 1013.1 |
| 20260502234518 | 79 | 14 | 0.0 | 3.0 | 0.00 | 0.00 | 0.00 | 30 | 1013.1 |
| 20260502234012 | 80 | 81 | 0.0 | 3.0 | 0.00 | 0.00 | 0.00 | 32 | 1013.0 |
| 20260502233512 | 80 | 33 | 0.0 | 3.0 | 0.00 | 0.00 | 0.00 | 31 | 1013.0 |
| 20260502233012 | 81 | 264 | 0.0 | 2.0 | 0.00 | 0.00 | 0.00 | 32 | 1013.2 |
| 20260502232511 | 80 | 115 | 0.0 | 1.0 | 0.00 | 0.00 | 0.00 | 31 | 1013.2 |
| 20260502232011 | 79 | 295 | 0.0 | 3.0 | 0.00 | 0.00 | 0.00 | 29 | 1013.1 |
| 20260502231510 | 79 | 314 | 0.0 | 3.0 | 0.00 | 0.00 | 0.00 | 28 | 1013.1 |
| 20260502231010 | 80 | 56 | 0.0 | 3.0 | 0.00 | 0.00 | 0.00 | 32 | 1013.2 |
| 20260502230510 | 79 | 58 | 0.0 | 3.0 | 0.00 | 0.00 | 0.00 | 30 | 1013.3 |
| 20260502230010 | 79 | 1 | 0.0 | 5.0 | 0.00 | 0.00 | 0.00 | 32 | 1013.2 |
| 20260502225509 | 80 | 283 | 1.0 | 5.0 | 0.00 | 0.00 | 0.00 | 31 | 1013.2 |
| 20260502225008 | 80 | 38 | 0.0 | 1.0 | 0.00 | 0.00 | 0.00 | 32 | 1013.2 |
| 20260502224509 | 79 | 62 | 0.0 | 3.0 | 0.00 | 0.00 | 0.00 | 30 | 1013.4 |
| 20260502224009 | 78 | 62 | 0.0 | 3.0 | 0.00 | 0.00 | 0.00 | 32 | 1013.4 |
| 20260502223508 | 78 | 335 | 0.0 | 5.0 | 0.00 | 0.00 | 0.00 | 30 | 1013.4 |
| 20260502223008 | 78 | 323 | 0.0 | 6.0 | 0.00 | 0.00 | 0.00 | 32 | 1013.5 |
| 20260502222508 | 78 | 335 | 1.0 | 6.0 | 0.00 | 0.00 | 0.00 | 32 | 1013.6 |
| 20260502222008 | 78 | 65 | 1.0 | 6.0 | 0.00 | 0.00 | 0.00 | 32 | 1013.5 |
| 20260502221507 | 78 | 301 | 2.0 | 6.0 | 0.00 | 0.00 | 0.00 | 30 | 1013.6 |
| 20260502221008 | 78 | 40 | 1.0 | 3.0 | 0.00 | 0.00 | 0.00 | 32 | 1013.7 |
| 20260502220507 | 78 | 307 | 0.0 | 4.0 | 0.00 | 0.00 | 0.00 | 30 | 1013.6 |
| 20260502220012 | 79 | 319 | 0.0 | 4.0 | 0.00 | 0.00 | 0.00 | 31 | 1013.5 |
| 20260502215507 | 78 | 63 | 0.0 | 5.0 | 0.00 | 0.00 | 0.00 | 33 | 1013.6 |
| 20260502215006 | 79 | 321 | 1.0 | 5.0 | 0.00 | 0.00 | 0.00 | 31 | 1013.7 |
| 20260502214506 | 79 | 333 | 1.0 | 3.0 | 0.00 | 0.00 | 0.00 | 33 | 1013.7 |
| 20260502214006 | 78 | 224 | 0.0 | 5.0 | 0.00 | 0.00 | 0.00 | 32 | 1013.8 |
| 20260502213506 | 78 | 37 | 0.0 | 5.0 | 0.00 | 0.00 | 0.00 | 31 | 1013.8 |
| 20260502213012 | 79 | 306 | 1.0 | 3.0 | 0.00 | 0.00 | 0.00 | 33 | 1013.9 |
| 20260502212508 | 80 | 77 | 0.0 | 3.0 | 0.00 | 0.00 | 0.00 | 30 | 1014.1 |
| 20260502212006 | 79 | 244 | 0.0 | 4.0 | 0.00 | 0.00 | 0.00 | 35 | 1014.1 |
| 20260502211504 | 78 | 244 | 0.0 | 4.0 | 0.00 | 0.00 | 0.00 | 34 | 1014.2 |
| 20260502211003 | 77 | 75 | 0.0 | 5.0 | 0.00 | 0.00 | 0.00 | 32 | 1014.2 |
| 20260502210503 | 77 | 288 | 2.0 | 5.0 | 0.00 | 0.00 | 0.00 | 33 | 1014.2 |
| 20260502210004 | 78 | 308 | 0.0 | 6.0 | 0.00 | 0.00 | 0.00 | 34 | 1014.3 |
| 20260502205503 | 78 | 100 | 2.0 | 5.0 | 0.00 | 0.00 | 0.00 | 32 | 1014.4 |
| 20260502205005 | 78 | 62 | 1.0 | 4.0 | 0.00 | 0.00 | 0.00 | 32 | 1014.4 |
| 20260502204503 | 77 | 63 | 1.0 | 4.0 | 0.00 | 0.00 | 0.00 | 32 | 1014.5 |
| 20260502204006 | 77 | 67 | 0.0 | 7.0 | 0.00 | 0.00 | 0.00 | 36 | 1014.5 |
| 20260502203503 | 77 | 13 | 2.0 | 7.0 | 0.00 | 0.00 | 0.00 | 34 | 1014.6 |
| 20260502203003 | 77 | 92 | 3.0 | 7.0 | 0.00 | 0.00 | 0.00 | 33 | 1014.5 |
| 20260502202504 | 78 | 54 | 1.0 | 6.0 | 0.00 | 0.00 | 0.00 | 36 | 1014.5 |
| 20260502202101 | 77 | 77 | 0.0 | 3.0 | 0.00 | 0.00 | 0.00 | 38 | 1014.5 |
| 20260502201620 | 77 | 97 | 0.0 | 4.0 | 0.00 | 0.00 | 0.00 | 34 | 1014.7 |
| 20260502201101 | 76 | 56 | 0.0 | 7.0 | 0.00 | 0.00 | 0.00 | 35 | 1014.7 |
| 20260502200559 | 77 | 60 | 2.0 | 7.0 | 0.00 | 0.00 | 0.00 | 33 | 1014.8 |
| 20260502200104 | 76 | 59 | 0.0 | 4.0 | 0.00 | 0.00 | 0.00 | 35 | 1014.8 |
| 20260502195601 | 76 | 353 | 0.0 | 4.0 | 0.00 | 0.00 | 0.00 | 34 | 1014.8 |
| 20260502195157 | 76 | 19 | 0.0 | 5.0 | 0.00 | 0.00 | 0.00 | 36 | 1014.9 |
| 20260502194601 | 76 | 62 | 2.0 | 6.0 | 0.00 | 0.00 | 0.00 | 34 | 1014.9 |
| 20260502194056 | 75 | 46 | 1.0 | 7.0 | 0.00 | 0.00 | 0.00 | 39 | 1014.9 |
| 20260502193556 | 76 | 98 | 2.0 | 7.0 | 0.00 | 0.00 | 0.00 | 36 | 1015.0 |
| 20260502193112 | 76 | 63 | 2.0 | 4.0 | 0.00 | 0.00 | 0.00 | 35 | 1015.0 |
| 20260502192554 | 76 | 223 | 1.0 | 5.0 | 0.00 | 0.00 | 0.00 | 36 | 1015.1 |
| 20260502192054 | 76 | 42 | 1.0 | 5.0 | 0.00 | 0.00 | 0.00 | 36 | 1015.1 |
| 20260502191554 | 75 | 236 | 0.0 | 7.0 | 0.00 | 0.00 | 0.00 | 35 | 1015.1 |
| 20260502191053 | 75 | 27 | 2.0 | 7.0 | 0.00 | 0.00 | 0.00 | 39 | 1015.1 |
| 20260502190553 | 75 | 83 | 2.0 | 7.0 | 0.00 | 0.00 | 0.00 | 35 | 1015.2 |
| 20260502190052 | 76 | 81 | 2.0 | 6.0 | 0.00 | 0.00 | 0.00 | 37 | 1015.3 |
| 20260502185552 | 76 | 75 | 1.0 | 5.0 | 0.00 | 0.00 | 0.00 | 38 | 1015.3 |
| 20260502185051 | 76 | 98 | 1.0 | 5.0 | 0.00 | 0.00 | 0.00 | 36 | 1015.4 |
| 20260502184556 | 75 | 186 | 1.0 | 5.0 | 0.00 | 0.00 | 0.00 | 37 | 1015.4 |
| 20260502184048 | 75 | 321 | 1.0 | 8.0 | 0.00 | 0.00 | 0.00 | 38 | 1015.4 |
| 20260502183548 | 74 | 37 | 1.0 | 8.0 | 0.00 | 0.00 | 0.00 | 37 | 1015.4 |
| 20260502183047 | 74 | 73 | 1.0 | 5.0 | 0.00 | 0.00 | 0.00 | 38 | 1015.5 |
| 20260502182546 | 74 | 92 | 0.0 | 4.0 | 0.00 | 0.00 | 0.00 | 41 | 1015.6 |
| 20260502182046 | 74 | 302 | 0.0 | 7.0 | 0.00 | 0.00 | 0.00 | 41 | 1015.7 |
| 20260502181546 | 74 | 85 | 1.0 | 6.0 | 0.00 | 0.00 | 0.00 | 41 | 1015.7 |
| 20260502181045 | 74 | 303 | 2.0 | 6.0 | 0.00 | 0.00 | 0.00 | 39 | 1015.7 |
| 20260502180545 | 74 | 112 | 1.0 | 6.0 | 0.00 | 0.00 | 0.00 | 40 | 1016.0 |
| 20260502164034 | 71 | 354 | 1.0 | 3.0 | 0.00 | 0.00 | 0.00 | 49 | 1016.9 |
| 20260502163532 | 71 | 44 | 0.0 | 3.0 | 0.00 | 0.00 | 0.00 | 49 | 1016.9 |
| 20260502163030 | 70 | 58 | 0.0 | 3.0 | 0.00 | 0.00 | 0.00 | 51 | 1016.8 |
| 20260502162531 | 69 | 51 | 0.0 | 4.0 | 0.00 | 0.00 | 0.00 | 52 | 1016.8 |
| 20260502162027 | 69 | 13 | 0.0 | 4.0 | 0.00 | 0.00 | 0.00 | 54 | 1016.6 |
| 20260502161530 | 68 | 165 | 0.0 | 4.0 | 0.00 | 0.00 | 0.00 | 52 | 1016.8 |
| 20260502161025 | 68 | 348 | 1.0 | 4.0 | 0.00 | 0.00 | 0.00 | 53 | 1016.7 |
| 20260502160524 | 68 | 306 | 0.0 | 5.0 | 0.00 | 0.00 | 0.00 | 57 | 1016.7 |
| 20260502152015 | 63 | 283 | 1.0 | 4.0 | 0.00 | 0.00 | 0.00 | 68 | 1016.7 |
| 20260502151510 | 63 | 314 | 1.0 | 4.0 | 0.00 | 0.00 | 0.00 | 68 | 1016.7 |
| 20260502151009 | 62 | 321 | 2.0 | 3.0 | 0.00 | 0.00 | 0.00 | 69 | 1016.7 |
| 20260502150507 | 62 | 313 | 1.0 | 5.0 | 0.00 | 0.00 | 0.00 | 70 | 1016.6 |
| 20260502130537 | 52 | 320 | 1.0 | 4.0 | 0.00 | 0.02 | 0.00 | 87 | 1015.7 |
| 20260502123531 | 50 | 330 | 1.0 | 5.0 | 0.00 | 0.02 | 0.00 | 89 | 1015.5 |
| 20260502123030 | 50 | 238 | 1.0 | 4.0 | 0.00 | 0.02 | 0.00 | 90 | 1015.4 |
| 20260502122530 | 50 | 350 | 0.0 | 4.0 | 0.00 | 0.02 | 0.00 | 90 | 1015.3 |
| 20260502122031 | 49 | 253 | 0.0 | 2.0 | 0.00 | 0.02 | 0.00 | 90 | 1015.2 |
| 20260502121532 | 49 | 283 | 0.0 | 2.0 | 0.00 | 0.02 | 0.00 | 90 | 1015.1 |
| 20260502121028 | 49 | 330 | 1.0 | 2.0 | 0.00 | 0.02 | 0.00 | 90 | 1015.0 |
| 20260502120526 | 49 | 300 | 0.0 | 3.0 | 0.00 | 0.02 | 0.00 | 90 | 1015.0 |
| 20260502115526 | 49 | 297 | 0.0 | 2.0 | 0.00 | 0.02 | 0.00 | 89 | 1014.7 |
| 20260502115025 | 49 | 293 | 0.0 | 2.0 | 0.00 | 0.02 | 0.00 | 89 | 1014.6 |
| 20260502114527 | 50 | 266 | 0.0 | 2.0 | 0.00 | 0.02 | 0.00 | 88 | 1014.5 |
| 20260502114026 | 50 | 281 | 0.0 | 2.0 | 0.00 | 0.02 | 0.00 | 88 | 1014.4 |
| 20260502113523 | 50 | 314 | 0.0 | 2.0 | 0.00 | 0.02 | 0.00 | 88 | 1014.2 |
| 20260502113026 | 50 | 310 | 0.0 | 3.0 | 0.00 | 0.02 | 0.00 | 89 | 1014.1 |
| 20260502112521 | 49 | 340 | 0.0 | 3.0 | 0.00 | 0.02 | 0.00 | 90 | 1014.0 |
| 20260502112024 | 49 | 340 | 0.0 | 2.0 | 0.00 | 0.02 | 0.00 | 91 | 1013.8 |
| 20260502111522 | 48 | 344 | 0.0 | 2.0 | 0.00 | 0.02 | 0.00 | 92 | 1013.8 |
| 20260502111020 | 47 | 268 | 0.0 | 1.0 | 0.00 | 0.02 | 0.00 | 93 | 1013.7 |
| 20260502110520 | 47 | 72 | 0.0 | 1.0 | 0.00 | 0.02 | 0.00 | 92 | 1013.7 |
| 20260502110020 | 47 | 72 | 0.0 | 1.0 | 0.00 | 0.02 | 0.00 | 91 | 1013.7 |
| 20260502105518 | 47 | 72 | 0.0 | 1.0 | 0.00 | 0.02 | 0.00 | 91 | 1013.7 |
| 20260502105020 | 48 | 72 | 0.0 | 0.0 | 0.00 | 0.02 | 0.00 | 91 | 1013.6 |
| 20260502104525 | 48 | 72 | 0.0 | 1.0 | 0.00 | 0.02 | 0.00 | 90 | 1013.6 |
| 20260502104019 | 48 | 72 | 0.0 | 1.0 | 0.00 | 0.02 | 0.00 | 91 | 1013.5 |
| 20260502103518 | 48 | 72 | 0.0 | 2.0 | 0.00 | 0.02 | 0.00 | 91 | 1013.5 |
| 20260502103018 | 49 | 72 | 0.0 | 2.0 | 0.00 | 0.02 | 0.00 | 91 | 1013.4 |
| 20260502102518 | 49 | 42 | 0.0 | 1.0 | 0.00 | 0.02 | 0.00 | 91 | 1013.4 |
| 20260502102018 | 49 | 27 | 0.0 | 1.0 | 0.00 | 0.02 | 0.00 | 90 | 1013.4 |
| 20260502101518 | 49 | 262 | 0.0 | 2.0 | 0.00 | 0.02 | 0.00 | 90 | 1013.6 |
| 20260502101017 | 49 | 262 | 0.0 | 2.0 | 0.00 | 0.02 | 0.00 | 90 | 1013.7 |
| 20260502100517 | 49 | 307 | 0.0 | 2.0 | 0.00 | 0.02 | 0.00 | 91 | 1013.7 |
| 20260502091518 | 49 | 64 | 0.0 | 1.0 | 0.00 | 0.04 | 0.00 | 90 | 1013.1 |
| 20260502091015 | 49 | 64 | 0.0 | 1.0 | 0.00 | 0.04 | 0.00 | 91 | 1013.0 |
| 20260502090513 | 49 | 64 | 0.0 | 1.0 | 0.00 | 0.04 | 0.00 | 91 | 1013.1 |
| 20260502071507 | 47 | 64 | 0.0 | 0.0 | 0.00 | 0.04 | 0.00 | 93 | 1013.4 |
| 20260502071006 | 47 | 64 | 0.0 | 0.0 | 0.00 | 0.04 | 0.00 | 92 | 1013.4 |
| 20260502070506 | 47 | 64 | 0.0 | 0.0 | 0.00 | 0.04 | 0.00 | 92 | 1013.3 |
| 20260502070006 | 48 | 64 | 0.0 | 0.0 | 0.00 | 0.04 | 0.00 | 92 | 1013.3 |
| 20260502065505 | 48 | 64 | 0.0 | 0.0 | 0.00 | 0.04 | 0.00 | 92 | 1013.3 |
| 20260502065007 | 48 | 64 | 0.0 | 0.0 | 0.00 | 0.04 | 0.00 | 92 | 1013.3 |
| 20260502064505 | 48 | 64 | 0.0 | 0.0 | 0.00 | 0.04 | 0.00 | 92 | 1013.3 |
| 20260502064002 | 48 | 64 | 0.0 | 0.0 | 0.00 | 0.04 | 0.00 | 92 | 1013.3 |
| 20260502063501 | 49 | 64 | 0.0 | 0.0 | 0.00 | 0.04 | 0.00 | 91 | 1013.4 |
| 20260502063001 | 49 | 64 | 0.0 | 0.0 | 0.00 | 0.04 | 0.00 | 92 | 1013.5 |
| 20260502062601 | 49 | 64 | 0.0 | 0.0 | 0.00 | 0.04 | 0.00 | 91 | 1013.6 |
| 20260502062059 | 49 | 64 | 0.0 | 0.0 | 0.00 | 0.04 | 0.00 | 92 | 1013.6 |
| 20260502061559 | 49 | 64 | 0.0 | 0.0 | 0.00 | 0.04 | 0.00 | 92 | 1013.7 |
| 20260502061057 | 49 | 64 | 0.0 | 0.0 | 0.00 | 0.04 | 0.00 | 92 | 1013.7 |
| 20260502060557 | 49 | 64 | 0.0 | 1.0 | 0.00 | 0.04 | 0.00 | 92 | 1013.6 |
| 20260502060059 | 49 | 64 | 0.0 | 1.0 | 0.00 | 0.04 | 0.00 | 92 | 1013.6 |
| 20260502055557 | 49 | 64 | 0.0 | 0.0 | 0.00 | 0.04 | 0.00 | 92 | 1013.7 |
| 20260502055059 | 49 | 64 | 0.0 | 1.0 | 0.00 | 0.04 | 0.00 | 92 | 1013.6 |
| 20260502054607 | 49 | 64 | 0.0 | 1.0 | 0.00 | 0.04 | 0.00 | 93 | 1013.5 |
| 20260502054059 | 49 | 64 | 0.0 | 1.0 | 0.00 | 0.04 | 0.00 | 92 | 1013.5 |
| 20260502053555 | 49 | 64 | 0.0 | 0.0 | 0.00 | 0.04 | 0.00 | 92 | 1013.5 |
| 20260502053055 | 50 | 64 | 0.0 | 0.0 | 0.00 | 0.04 | 0.00 | 92 | 1013.4 |
| 20260502052556 | 50 | 64 | 0.0 | 1.0 | 0.00 | 0.04 | 0.00 | 92 | 1013.5 |
| 20260502052054 | 50 | 64 | 0.0 | 1.0 | 0.00 | 0.04 | 0.00 | 92 | 1013.5 |
| 20260502051554 | 50 | 64 | 0.0 | 0.0 | 0.00 | 0.04 | 0.00 | 92 | 1013.5 |
| 20260502051052 | 50 | 64 | 0.0 | 1.0 | 0.00 | 0.04 | 0.00 | 92 | 1013.4 |
| 20260502050552 | 50 | 64 | 0.0 | 1.0 | 0.00 | 0.04 | 0.00 | 93 | 1013.4 |
| 20260502050051 | 50 | 64 | 0.0 | 1.0 | 0.00 | 0.04 | 0.00 | 92 | 1013.4 |
| 20260502045551 | 50 | 64 | 0.0 | 0.0 | 0.00 | 0.04 | 0.04 | 92 | 1013.3 |
| 20260502045050 | 50 | 64 | 0.0 | 0.0 | 0.00 | 0.04 | 0.04 | 92 | 1013.3 |
| 20260502044551 | 49 | 64 | 0.0 | 0.0 | 0.00 | 0.04 | 0.04 | 91 | 1013.3 |
| 20260502044051 | 50 | 64 | 0.0 | 0.0 | 0.00 | 0.04 | 0.04 | 90 | 1013.3 |
| 20260502043550 | 50 | 64 | 0.0 | 0.0 | 0.00 | 0.04 | 0.04 | 90 | 1013.4 |
| 20260502043105 | 50 | 64 | 0.0 | 0.0 | 0.00 | 0.04 | 0.04 | 90 | 1013.4 |
| 20260502042547 | 51 | 64 | 0.0 | 0.0 | 0.00 | 0.04 | 0.04 | 90 | 1013.4 |
| 20260502042046 | 51 | 64 | 0.0 | 0.0 | 0.00 | 0.04 | 0.04 | 90 | 1013.3 |
| 20260502041610 | 51 | 64 | 0.0 | 1.0 | 0.00 | 0.04 | 0.04 | 90 | 1013.4 |
| 20260502041044 | 51 | 64 | 0.0 | 1.0 | 0.00 | 0.04 | 0.04 | 91 | 1013.5 |
| 20260502040547 | 51 | 64 | 0.0 | 1.0 | 0.00 | 0.04 | 0.04 | 91 | 1013.4 |
| 20260502040052 | 51 | 64 | 0.0 | 1.0 | 0.00 | 0.04 | 0.04 | 90 | 1013.2 |